Date_and_time,latitude,longitude,wind_speed,RelWindDirFrom,WindDirFrom,air_pressure,air_temperature,relative_humidity,Temp,platform_speed_wrt_ground,air_pressure_at_mean_sea_level,platform_orientation
2018-09-18 23:40,50.6304466666667,-96.9807666666667,6.8,8.8,318,990.45,12.6,72,14.38,0.0,1017.08,145.6
2018-09-18 23:50,50.6304466666667,-96.9807666666667,5.2,8.1,317,990.39,12.5,72,14.38,0.0,1017.04,145.6
2018-09-19 00:00,50.6304433333333,-96.9807666666667,4.7,7.1,337,990.39,12.5,73,14.41,0.0,1017.03,270.0
2018-09-19 00:10,50.6304433333333,-96.9807683333333,4.2,5.5,340,990.44,12.5,74,14.45,0.0,1017.08,270.0
2018-09-19 00:20,50.6304433333333,-96.9807683333333,4.3,6.1,324,990.45,12.4,74,14.43,0.0,1017.08,270.0
2018-09-19 00:30,50.6304383333333,-96.9807883333333,4.5,6.1,318,990.51,12.3,74,14.42,0.0,1017.17,270.0
2018-09-19 00:40,50.6304433333333,-96.9807716666667,4.3,5.6,319,990.53,12.2,75,14.41,0.0,1017.20,270.0
2018-09-19 00:50,50.6304433333333,-96.980765,4.7,6.2,322,990.51,12.1,76,14.40,0.0,1017.17,270.0
2018-09-19 01:00,50.6304433333333,-96.980765,4.7,6.1,314,990.52,12.0,76,14.42,0.0,1017.19,90.0
2018-09-19 01:10,50.6304433333333,-96.980765,4.9,6.5,316,990.53,11.8,78,14.44,0.0,1017.22,90.0
2018-09-19 01:20,50.6304483333333,-96.9807633333333,5.0,7.0,316,990.63,11.5,80,14.43,0.0,1017.36,90.0
2018-09-19 01:30,50.6304216666667,-96.9807466666667,4.7,6.2,316,990.75,11.3,81,14.41,0.0,1017.51,90.0
2018-09-19 01:40,50.6304516666667,-96.9807716666667,5.7,8.6,315,990.85,11.1,82,14.40,0.0,1017.62,90.0
2018-09-19 01:50,50.63045,-96.9807683333333,5.2,7.9,312,990.99,10.9,83,14.39,0.0,1017.77,90.0
2018-09-19 02:00,50.6304483333333,-96.9807633333333,5.3,7.3,312,991.07,10.8,82,14.39,0.0,1017.87,18.9
2018-09-19 02:10,50.6304466666667,-96.980765,5.0,6.8,309,991.16,10.7,81,14.38,0.0,1017.97,18.9
2018-09-19 02:20,50.6304466666667,-96.980765,5.0,7.5,301,991.25,10.7,79,14.38,0.0,1018.07,18.9
2018-09-19 02:30,50.6304466666667,-96.980765,5.4,8.0,298,991.34,10.6,78,14.38,0.0,1018.17,18.9
2018-09-19 02:40,50.630445,-96.9807666666667,5.1,7.7,295,991.48,10.5,78,14.37,0.0,1018.33,18.9
2018-09-19 02:50,50.630405,-96.9807666666667,4.8,7.2,303,991.51,10.4,78,14.36,0.0,1018.36,18.9
2018-09-19 03:00,50.6304283333333,-96.980765,4.7,6.9,304,991.51,10.4,78,14.36,0.0,1018.37,161.1
2018-09-19 03:10,50.6304316666667,-96.980775,4.3,6.2,302,991.59,10.3,79,14.36,0.0,1018.47,161.1
2018-09-19 03:20,50.630435,-96.9807733333333,4.9,7.0,297,991.67,10.2,80,14.36,0.0,1018.57,161.1
2018-09-19 03:30,50.630435,-96.9807733333333,5.1,7.7,297,991.75,10.0,80,14.36,0.0,1018.67,161.1
2018-09-19 03:40,50.6304366666667,-96.9807733333333,6.1,8.7,303,991.88,9.9,80,14.35,0.0,1018.81,161.1
2018-09-19 03:50,50.6304383333333,-96.9807733333333,5.0,7.6,296,992.04,9.9,80,14.34,0.0,1018.99,161.1
2018-09-19 04:00,50.6304516666667,-96.9807716666667,7.0,10.1,305,992.06,9.8,80,14.30,0.0,1019.02,360.0
2018-09-19 04:10,50.6304533333333,-96.9807683333333,7.0,10.6,304,992.09,9.6,81,14.31,0.0,1019.06,360.0
2018-09-19 04:20,50.6304333333333,-96.98078,7.8,12.3,308,992.13,9.5,80,14.32,0.0,1019.11,360.0
2018-09-19 04:30,50.6304383333333,-96.9807816666667,8.4,12.4,306,992.17,9.4,79,14.31,0.0,1019.16,360.0
2018-09-19 04:40,50.6304366666667,-96.9807783333333,8.4,13.1,310,992.14,9.3,78,14.29,0.0,1019.13,360.0
2018-09-19 04:50,50.6304366666667,-96.9807783333333,6.4,11.2,303,992.26,9.1,77,14.29,0.0,1019.27,360.0
2018-09-19 05:00,50.6304383333333,-96.9807766666667,7.1,10.9,303,992.21,8.9,77,14.29,0.0,1019.24,228.3
2018-09-19 05:10,50.6304366666667,-96.9807766666667,6.4,10.8,299,992.33,8.6,78,14.28,0.0,1019.38,228.3
2018-09-19 05:20,50.6304366666667,-96.9807733333333,7.2,11.2,304,992.25,8.5,77,14.28,0.0,1019.30,228.3
2018-09-19 05:30,50.63044,-96.980765,6.6,10.5,300,992.26,8.5,76,14.26,0.0,1019.32,228.3
2018-09-19 05:40,50.6304383333333,-96.980765,6.8,9.7,302,992.33,8.4,76,14.25,0.0,1019.40,228.3
2018-09-19 05:50,50.630435,-96.9807633333333,7.3,12.2,300,992.32,8.2,76,14.23,0.0,1019.40,228.3
2018-09-19 06:00,50.6304333333333,-96.980765,7.8,11.3,303,992.30,8.1,75,14.22,0.0,1019.40,360.0
2018-09-19 06:10,50.6304316666667,-96.9807666666667,6.8,11.0,301,992.30,7.9,77,14.21,0.0,1019.41,360.0
2018-09-19 06:20,50.6304316666667,-96.9807716666667,6.1,10.1,291,992.51,7.7,78,14.21,0.0,1019.64,360.0
2018-09-19 06:30,50.6304333333333,-96.9807716666667,6.6,10.0,294,992.46,7.5,79,14.21,0.0,1019.61,360.0
2018-09-19 06:40,50.6304233333333,-96.9807733333333,7.3,11.0,299,992.59,7.5,79,14.22,0.0,1019.75,360.0
2018-09-19 06:50,50.6304283333333,-96.9807733333333,7.4,11.3,304,992.61,7.5,78,14.22,0.0,1019.78,360.0
2018-09-19 07:00,50.63043,-96.9807733333333,7.3,10.6,303,992.69,7.5,78,14.21,0.0,1019.88,360.0
2018-09-19 07:10,50.6304316666667,-96.9807716666667,7.0,10.6,315,992.66,7.4,80,14.20,0.0,1019.85,360.0
2018-09-19 07:20,50.63045,-96.98078,6.1,9.6,318,992.69,7.3,81,14.20,0.0,1019.90,360.0
2018-09-19 07:30,50.630445,-96.9807716666667,6.0,9.9,316,992.68,7.1,83,14.19,0.0,1019.90,360.0
2018-09-19 07:40,50.6304433333333,-96.98078,4.8,7.2,308,992.82,6.9,85,14.18,0.0,1020.06,360.0
2018-09-19 07:50,50.630445,-96.9807783333333,4.3,6.1,308,992.92,6.7,86,14.17,0.0,1020.18,360.0
2018-09-19 08:00,50.630445,-96.9807766666667,4.4,6.8,304,992.94,6.6,88,14.17,0.0,1020.21,90.0
2018-09-19 08:10,50.6304516666667,-96.9807783333333,4.1,6.2,299,993.05,6.5,89,14.16,0.0,1020.34,90.0
2018-09-19 08:20,50.6304466666667,-96.9807683333333,4.1,6.4,295,993.16,6.4,89,14.15,0.0,1020.47,90.0
2018-09-19 08:30,50.630445,-96.980775,3.1,5.1,288,993.20,6.2,91,14.14,0.0,1020.53,90.0
2018-09-19 08:40,50.630445,-96.9807733333333,3.0,5.0,268,993.25,6.0,91,14.13,0.0,1020.58,90.0
2018-09-19 08:50,50.63044,-96.9807283333333,2.8,4.9,284,993.15,5.8,92,14.11,0.0,1020.49,90.0
2018-09-19 09:00,50.63044,-96.98075,4.2,7.0,286,993.19,5.7,93,14.11,0.0,1020.54,36.6
2018-09-19 09:10,50.6304366666667,-96.9807533333333,5.1,8.3,299,993.05,5.6,94,14.10,0.0,1020.41,36.6
2018-09-19 09:20,50.6304333333333,-96.98075,5.4,7.4,306,992.91,5.5,94,14.10,0.0,1020.27,36.6
2018-09-19 09:30,50.6304433333333,-96.98077,4.4,6.6,292,992.89,5.5,95,14.09,0.0,1020.27,36.6
2018-09-19 09:40,50.6304366666667,-96.980765,4.1,6.6,296,992.81,5.4,96,14.09,0.0,1020.20,36.6
2018-09-19 09:50,50.630435,-96.980795,4.9,6.6,309,992.73,5.4,96,14.08,0.0,1020.12,36.6
2018-09-19 10:00,50.6304366666667,-96.980775,4.4,6.4,293,992.90,5.5,96,14.07,0.0,1020.29,360.0
2018-09-19 10:10,50.6304333333333,-96.980775,4.4,6.7,281,993.07,5.3,97,14.07,0.0,1020.49,360.0
2018-09-19 10:20,50.6304316666667,-96.9807716666667,3.9,6.4,284,993.06,5.1,98,14.07,0.0,1020.49,360.0
2018-09-19 10:30,50.63043,-96.98077,3.7,5.6,278,993.10,5.0,99,14.07,0.0,1020.55,360.0
2018-09-19 10:40,50.6304366666667,-96.9807616666667,4.6,6.2,276,993.24,4.8,99,14.06,0.0,1020.72,360.0
2018-09-19 10:50,50.6304333333333,-96.9807533333333,5.2,7.5,275,993.41,4.7,99,14.05,0.0,1020.90,360.0
2018-09-19 11:00,50.6304383333333,-96.9807516666667,5.4,6.9,273,993.41,4.6,99,14.03,0.0,1020.90,90.0
2018-09-19 11:10,50.63044,-96.9807566666667,5.3,7.7,273,993.44,4.5,99,14.02,0.0,1020.95,90.0
2018-09-19 11:20,50.6304416666667,-96.98076,5.7,7.4,282,993.53,4.4,99,14.03,0.0,1021.05,90.0
2018-09-19 11:30,50.6304416666667,-96.9807616666667,4.9,7.1,289,993.52,4.3,99,14.04,0.0,1021.05,90.0
2018-09-19 11:40,50.6304433333333,-96.9807633333333,4.6,7.1,298,993.41,4.6,99,14.03,0.0,1020.92,90.0
2018-09-19 11:50,50.6304433333333,-96.9807616666667,5.7,8.2,304,993.32,4.9,99,14.03,0.0,1020.81,90.0
2018-09-19 12:00,50.6304433333333,-96.9807616666667,6.1,8.2,304,993.36,5.1,97,14.03,0.0,1020.85,270.0
2018-09-19 12:10,50.6304433333333,-96.9807616666667,4.5,6.8,295,993.57,5.2,96,14.02,0.0,1021.06,270.0
2018-09-19 12:20,50.6304433333333,-96.9807616666667,4.5,7.0,296,993.73,5.0,96,14.00,0.0,1021.25,270.0
2018-09-19 12:30,50.6304433333333,-96.9807633333333,4.2,7.0,291,993.87,5.0,93,13.97,0.0,1021.40,270.0
2018-09-19 12:40,50.6304316666667,-96.9807166666667,4.6,6.9,298,993.92,5.1,91,13.94,0.0,1021.45,270.0
2018-09-19 12:50,50.6304466666667,-96.9807716666667,4.5,6.8,294,993.97,5.3,91,13.92,0.0,1021.50,270.0
2018-09-19 13:00,50.6304266666667,-96.9807683333333,4.8,7.0,289,993.90,5.3,91,13.91,0.0,1021.43,165.5
2018-09-19 13:10,50.6304283333333,-96.9807733333333,5.1,7.1,298,993.92,5.6,91,13.89,0.0,1021.45,165.5
2018-09-19 13:20,50.6304316666667,-96.98077,4.8,7.5,287,994.06,5.9,89,13.89,0.0,1021.57,165.5
2018-09-19 13:30,50.63043,-96.9807666666667,3.7,6.3,290,994.20,6.2,89,13.91,0.0,1021.69,165.5
2018-09-19 13:40,50.63043,-96.980765,4.3,6.9,301,994.16,6.4,87,13.92,0.0,1021.62,165.5
2018-09-19 13:50,50.6304283333333,-96.9807616666667,4.9,7.6,305,994.20,6.8,84,13.92,0.0,1021.64,165.5
2018-09-19 14:00,50.6304283333333,-96.9807633333333,6.3,10.4,313,994.28,7.2,80,13.91,0.0,1021.69,183.2
2018-09-19 14:10,50.63043,-96.9807633333333,5.9,8.9,299,994.43,7.4,76,13.88,0.0,1021.84,183.2
2018-09-19 14:20,50.6304316666667,-96.9807516666667,6.3,10.2,304,994.45,7.5,75,13.87,0.0,1021.86,183.2
2018-09-19 14:30,50.630435,-96.980775,5.7,8.5,313,994.51,7.5,74,13.87,0.0,1021.92,183.2
2018-09-19 14:40,50.6304183333333,-96.980765,6.5,10.2,325,994.61,7.6,70,13.85,0.0,1022.01,183.2
2018-09-19 14:50,50.6304283333333,-96.98077,6.0,9.2,319,994.63,7.8,69,13.83,0.0,1022.02,183.2
2018-09-19 15:00,50.6304283333333,-96.9807666666667,5.2,8.4,310,994.68,8.1,67,13.83,0.0,1022.05,203.5
2018-09-19 15:10,50.63043,-96.9807666666667,7.0,11.5,316,994.70,8.2,66,13.82,0.0,1022.03,203.5
2018-09-19 15:20,50.6304333333333,-96.9807666666667,6.3,10.9,325,994.80,8.5,65,13.82,0.0,1022.12,203.5
2018-09-19 15:30,50.6304333333333,-96.9807666666667,5.4,9.7,338,994.95,8.7,64,13.82,0.0,1022.25,203.5
2018-09-19 15:40,50.6304383333333,-96.980775,5.8,10.8,332,995.18,8.9,63,13.85,0.0,1022.46,203.5
2018-09-19 15:50,50.63044,-96.980775,5.0,8.9,321,995.26,8.9,62,13.85,0.0,1022.52,203.5
2018-09-19 16:00,50.6304433333333,-96.980775,6.0,11.2,3,995.27,9.3,63,13.84,0.0,1022.50,336.5
2018-09-19 16:10,50.6304416666667,-96.980775,7.2,11.1,357,995.26,9.3,61,13.84,0.0,1022.48,336.5
2018-09-19 16:20,50.6304416666667,-96.9807766666667,4.3,9.3,358,995.34,9.5,60,13.86,0.0,1022.56,336.5
2018-09-19 16:30,50.6304416666667,-96.980775,5.8,8.8,20,995.28,9.6,61,13.88,0.0,1022.48,336.5
2018-09-19 16:40,50.6304316666667,-96.980775,5.9,9.6,4,995.27,9.7,61,13.89,0.0,1022.46,336.5
2018-09-19 16:50,50.6304383333333,-96.9807783333333,8.6,11.1,26,995.23,9.8,63,13.91,0.0,1022.40,336.5
2018-09-19 17:00,50.63044,-96.9807766666667,7.9,10.6,25,995.19,9.8,62,13.91,0.0,1022.35,360.0
2018-09-19 17:10,50.63044,-96.9807733333333,8.5,11.2,32,995.13,9.8,63,13.91,0.0,1022.28,360.0
2018-09-19 17:20,50.630445,-96.9807816666667,7.4,10.1,40,995.20,10.0,63,13.92,0.0,1022.33,360.0
2018-09-19 17:30,50.6304483333333,-96.980775,8.4,10.5,35,995.14,10.1,62,13.94,0.0,1022.26,360.0
2018-09-19 17:40,50.6304433333333,-96.9807666666667,8.2,11.2,43,995.08,10.2,63,13.94,0.0,1022.18,360.0
2018-09-19 17:50,50.6304466666667,-96.9807683333333,9.3,11.8,45,995.05,10.3,64,13.92,0.0,1022.14,360.0
2018-09-19 18:00,50.6304266666667,-96.9808083333333,9.8,11.9,39,994.98,10.2,65,13.92,0.0,1022.06,270.0
2018-09-19 18:10,50.63043,-96.98078,8.6,11.5,33,995.12,10.1,64,13.91,0.0,1022.21,270.0
2018-09-19 18:20,50.6304333333333,-96.9807716666667,8.9,10.6,36,995.18,10.3,63,13.91,0.0,1022.25,270.0
2018-09-19 18:30,50.6304316666667,-96.9807683333333,9.6,12.0,37,995.14,10.5,63,13.91,0.0,1022.20,270.0
2018-09-19 18:40,50.6304366666667,-96.9807633333333,7.9,10.6,34,995.26,10.4,62,13.91,0.0,1022.33,270.0
2018-09-19 18:50,50.6304383333333,-96.9807616666667,7.9,10.3,43,995.17,10.6,62,13.96,0.0,1022.21,270.0
2018-09-19 19:00,50.63044,-96.9807633333333,8.4,11.4,55,995.04,10.5,63,14.02,0.0,1022.08,90.0
2018-09-19 19:10,50.6304383333333,-96.980765,8.5,11.1,46,994.94,10.5,62,14.04,0.0,1021.98,90.0
2018-09-19 19:20,50.63044,-96.9807666666667,9.1,10.8,55,994.89,10.7,61,14.07,0.0,1021.91,90.0
2018-09-19 19:30,50.6304533333333,-96.9807866666667,7.2,9.6,59,995.04,10.8,62,14.07,0.0,1022.05,90.0
2018-09-19 19:40,50.63045,-96.98078,6.7,8.7,61,995.05,10.8,62,14.04,0.0,1022.06,90.0
2018-09-19 19:50,50.6304316666667,-96.98077,7.4,10.1,59,994.88,10.9,63,14.01,0.0,1021.88,90.0
2018-09-19 20:00,50.6304533333333,-96.98076,7.1,9.2,59,994.84,10.6,64,13.98,0.0,1021.86,48.3
2018-09-19 20:10,50.630445,-96.980765,7.1,9.2,58,994.77,10.7,63,13.96,0.0,1021.78,48.3
2018-09-19 20:20,50.63044,-96.9807616666667,6.9,9.5,61,994.75,10.9,62,14.00,0.0,1021.74,48.3
2018-09-19 20:30,50.6304416666667,-96.98077,7.0,8.8,60,994.67,10.9,61,14.03,0.0,1021.66,48.3
2018-09-19 20:40,50.6304416666667,-96.9807666666667,7.3,9.2,54,994.57,11.0,61,14.01,0.0,1021.55,48.3
2018-09-19 20:50,50.63044,-96.9807666666667,6.8,9.0,55,994.44,11.4,61,13.98,0.0,1021.39,48.3
2018-09-19 21:00,50.63044,-96.9807683333333,6.4,8.4,51,994.42,11.6,59,13.97,0.0,1021.37,60.9
2018-09-19 21:10,50.6304416666667,-96.98077,6.0,8.3,48,994.53,11.4,60,13.99,0.0,1021.47,60.9
2018-09-19 21:20,50.630445,-96.98077,5.7,7.6,57,994.45,11.3,60,14.02,0.0,1021.40,60.9
2018-09-19 21:30,50.6304683333333,-96.980825,6.4,7.9,50,994.41,11.5,60,14.03,0.0,1021.35,60.9
2018-09-19 21:40,50.6304266666667,-96.9807633333333,5.8,8.3,49,994.47,11.3,61,14.02,0.0,1021.41,60.9
2018-09-19 21:50,50.6304333333333,-96.9807683333333,5.8,8.1,59,994.38,11.4,60,14.03,0.0,1021.33,60.9
2018-09-19 22:00,50.630435,-96.98077,5.4,8.2,57,994.36,11.4,60,14.02,0.0,1021.30,360.0
2018-09-19 22:10,50.630435,-96.9807733333333,5.9,7.8,59,994.34,11.6,59,14.09,0.0,1021.27,360.0
2018-09-19 22:20,50.6304333333333,-96.9807733333333,5.3,7.3,66,994.36,11.5,60,14.17,0.0,1021.29,360.0
2018-09-19 22:30,50.630435,-96.9807733333333,5.0,7.5,70,994.52,11.6,60,14.17,0.0,1021.44,360.0
2018-09-19 22:40,50.630475,-96.9807966666667,5.3,7.7,80,994.49,12.0,59,14.17,0.0,1021.37,360.0
2018-09-19 22:50,50.630445,-96.980775,5.6,8.2,72,994.52,11.9,59,14.18,0.0,1021.40,360.0
2018-09-19 23:00,50.6304383333333,-96.9807716666667,4.6,6.2,72,994.60,12.0,59,14.19,0.0,1021.49,228.3
2018-09-19 23:10,50.630435,-96.98077,6.0,8.6,68,994.60,11.7,60,14.21,0.0,1021.51,228.3
2018-09-19 23:20,50.630435,-96.9807716666667,5.4,8.2,70,994.69,11.5,60,14.25,0.0,1021.60,228.3
2018-09-19 23:30,50.6304366666667,-96.9807716666667,4.8,6.8,66,994.76,11.5,59,14.27,0.0,1021.68,228.3
2018-09-19 23:40,50.6304383333333,-96.98077,4.4,6.6,61,994.76,11.5,60,14.27,0.0,1021.67,228.3
2018-09-19 23:50,50.6304383333333,-96.98077,4.2,5.8,63,994.78,11.7,59,14.28,0.0,1021.69,228.3
